STARLINK-1531, 46572

Orbit data source: Space-Track

STARLINK-1531, 46572 is a payload satellite owned by SpaceX/Seattle (US) in LEO that was launched on Tue, 06 Oct 2020 UTC via an FALCON 9 launch vehicle from the Air Force Eastern Test Range (AFETR). Payload-class satellites include a variety of spacecraft equipped with specific instruments for various scientific and technological missions. These include communications satellites like Starlink; space stations such as the ISS; scientific satellites like the Hubble; Earth observation satellites from companies like Planet Labs, Umbra, and HawkEye 360; GPS; miniature CubeSats for education and research; and military/defense satellites.

Loading next visibility...
Identifier
46572, 2020-070AS
Orbit
LEO
Country
Flag of USUS
Related business
Manufacturer
SpaceX/Seattle
Mission
Partially operational Commercial Communications
Bus & Motor
STARLINK, Unknown motor
Mass
260 kg wet, ~248 kg dry
Launch date (UTC)
2020-10-06 (6 years ago)
Launch vehicle
FALCON 9
Launch site
Air Force Eastern Test Range (AFETR)
Object type
Payload
Rocket body
Debris
Shape & HBR
Box + 1 Pan, 10.1 m
Radar Cross Section
13.562 m², Large (>1 m²)

Expand to show TLE details & history
Last TLE update: 4 hours ago

TLE from 4 hours ago
0 STARLINK-1531
1 46572U 20070AS  26124.50002315  .00102594  00000-0  63071-3 0  9995
2 46572  53.0512 223.7769 0008008  28.7432 289.3031 15.76418400  5951
Epoch: 2026-05-04T12:00Z
TLE epoch observation values (Epoch: 2026-05-04T12:00:02.000Z)
Latitude
-32.5673°
Longitude
152.84377°
Altitude
348.959 km
Speed
7.7 km/s
True Right ascension
13h 00m 57s
True Declination
-32° 24' 07"
Sunlit
Object was in full shadow at epoch
Visualization orbit readout
Latitude
Unknown
Longitude
Unknown
Altitude
Unknown
Speed
Unknown
Apparent Right ascension
Unknown
Apparent Declination
Unknown
Sunlit
N/A
Visualization observer readout
Local Sidereal Time
00:14:04
Azimuth
Unknown
Elevation
Unknown
Doppler factor
Unknown
Orbital elements
Apogee altitude
346.258 km
Perigee altitude
335.497 km
Semi-major axis
6,719.014 km
Eccentricity
0.0008
Inclination
53.0512°
RAAN
223.7769°
Arg. of periapsis
28.7432°
True anomaly
289.21647°
Mean anomaly
289.3031°
Eccentric anomaly
289.25979°
Mean motion
3.9408 °/min
Orbital period
91.35 mins
BSTAR
0.00063071
Loading maneuver chart data...
Computing Atmospheric mass density...
Loading historical data...
Loading historical data...
Loading historical data...
Loading historical data...
Loading historical data...
Loading historical data...
Loading historical data...

Documentation

Showing up to 5 results
|